Vertical_Velocity
-2 0 -1 -0 0 -0 2 1 -1 -1 1 -4 -2 -3 -2 -2 -1 -2 -2 -2 1 -2 -0 -2 -4 2 0 0 1 2 -2 -3 -2 0 0 -2 1 -1 -2 1 0 -0 1 -1 2 1 -9 -3 -3 -3 -2 2 1 -1
-0 -2 -0 1 2 2 -0 1 -1 -0 -0 0 2 -2 -4 -3 -0 -2 -0 -1 -5 -3 5 -1 -0 1 3 1 -1 2 2 0 -2 -2 1 -0 -2 3 4 -6 -1 -6 -3 -1 -4 -6 -2 -1 -1 -1 -1 -1 -3 2
-3 -1 1 2 0 1 0 -1 -1 -0 -0 -3 -3 0 3 -4 -2 -1 -2 -2 -7 -8 0 -2 5 6 1 -1 1 -4 2 2 2 3 0 -0 -3 5 0 -5 -0 -3 6 -4 5 2 3 5 0 -1 -2 -3 -2 -1
-0 -0 1 1 -0 -0 1 2 -0 1 3 0 -0 3 2 -0 -4 1 -1 -1 2 -9 -6 -6 -7 2 -2 -1 -0 -0 0 -1 2 2 3 3 6 3 -3 2 -2 16 3 2 -8 4 -1 1 -2 0 3 0 -1 -2
2 2 0 0 0 1 1 -3 2 1 -1 -0 3 4 3 2 -2 -3 -1 -3 -2 4 -5 -11 -5 3 -2 -1 -2 -2 -1 -1 1 0 1 5 -1 2 -1 -3 -1 3 7 3 -4 2 1 4 1 -1 -1 0 -1 -1
1 2 2 1 1 0 1 -1 2 1 2 4 6 6 1 5 -1 -0 -9 -4 -4 -2 -8 -10 -14 -6 -1 1 1 -1 -1 -2 -2 -1 3 -2 6 2 1 -17 10 4 1 0 -1 -3 -1 1 0 -0 -2 -4 -3 -2
0 -1 -1 -1 -2 -0 0 -1 5 -1 5 8 2 2 4 5 2 -1 2 -2 -3 2 -2 -19 -8 1 1 0 -2 -1 1 -0 2 -3 -9 4 1 4 -6 -9 -1 0 -0 1 -1 1 0 3 -0 1 -0 0 1 -1
-0 -2 -1 1 -0 0 3 0 6 12 2 3 0 4 1 3 0 -2 1 -4 -5 5 -2 -6 -5 -3 2 -0 -1 -1 -3 -0 -7 -2 -6 1 1 2 -14 -1 -2 -2 -2 -1 -2 2 -1 2 3 -1 -3 -3 -5 0
1 -0 -1 0 1 0 1 1 7 22 4 6 -1 9 -3 4 3 0 -1 -2 0 17 -2 -7 -0 -3 -7 -2 -1 -1 -2 -3 -3 -6 -1 -6 -1 -7 2 3 0 1 -2 -2 1 0 3 1 5 5 0 3 -1 4
-1 -0 -0 -1 -2 -1 -1 7 18 14 1 5 7 9 -2 -2 7 2 -13 -6 -3 -5 -6 -7 2 -4 6 5 -4 6 1 -3 0 -3 2 -3 -19 7 -6 -1 0 0 -3 -3 -2 -1 -2 2 -2 1 -1 -2 -3 -0
-1 -0 2 -0 0 -3 1 18 8 11 5 1 6 7 2 5 4 -1 -8 -1 0 -2 -1 -1 1 -2 2 1 6 4 -1 -3 2 1 -2 -2 -17 -0 4 7 1 -1 -2 -2 -0 -0 -1 0 2 1 1 1 -1 -1
-1 3 0 -0 -3 17 7 8 5 20 -4 15 16 16 6 5 -1 -2 -4 -2 -1 -3 -5 -1 3 -1 -0 3 3 2 1 2 0 3 -3 -4 4 3 0 -0 0 -2 -3 -2 -1 0 1 2 3 2 1 1 0 1
1 1 1 3 -1 -1 10 1 1 8 16 15 14 11 1 -3 0 -7 -5 -3 -1 -3 -2 -4 5 3 -4 2 3 -0 0 1 4 1 -4 2 2 2 0 -1 -3 -4 -3 -3 -1 2 1 1 1 -0 0 -2 -0 1
2 2 1 -5 7 18 12 9 0 5 18 13 9 3 -13 -3 -6 -10 -3 2 3 1 2 5 5 8 0 7 2 1 5 -1 1 -3 -1 5 5 4 1 0 -3 -2 -3 -0 1 0 0 1 4 4 1 0 1 1
2 2 -1 -0 3 3 6 -2 8 17 9 16 1 -13 -5 -1 -0 -3 2 4 3 3 10 3 2 1 1 1 2 2 -1 -2 -1 1 3 2 2 -1 1 0 -1 -1 -0 2 3 4 2 4 1 -0 1 1 -0 2
3 -7 -4 11 1 0 12 13 13 9 15 14 3 -15 -0 -1 -4 2 1 -2 5 8 6 -0 2 0 1 -3 -1 -0 2 0 3 3 1 2 1 -0 -1 -0 1 -1 -0 1 1 2 1 1 0 0 1 -2 -1 -4
-3 -9 7 6 6 -1 6 10 13 15 14 -4 -18 -3 3 -6 -7 4 5 2 8 7 8 5 -2 3 3 2 -4 -1 -2 1 -4 2 5 5 1 -1 0 -2 -0 -0 0 0 2 2 4 2 1 -1 0 0 -1 1
-4 -1 8 4 5 10 4 1 11 2 -2 -2 -13 7 1 -2 1 4 4 11 13 10 1 7 2 0 -3 2 2 -4 -0 4 4 2 1 0 -1 1 -2 -3 -1 0 3 3 4 3 2 2 2 1 -2 -3 -3 -1
0 3 9 11 8 7 12 14 15 -3 -1 -3 -8 8 -1 1 4 5 7 9 8 4 5 1 2 0 -2 -1 -1 6 5 -0 -2 5 4 1 -4 -3 -0 2 1 0 -0 1 3 3 1 3 1 2 2 -0 -5 -3
3 7 5 10 11 9 14 13 3 8 -5 -8 4 -0 -2 6 7 5 4 4 1 3 3 -3 -1 1 4 2 3 3 2 2 -4 -1 2 5 1 2 1 1 1 3 4 3 4 4 3 5 3 3 2 1 -4 -4
-4 8 6 15 5 6 11 2 3 0 -1 -3 -3 -1 4 4 3 2 3 3 3 1 -0 4 6 4 3 5 4 3 1 -1 -3 -6 -9 -2 3 0 1 2 1 3 3 2 1 4 4 4 5 2 1 4 2 -0
10 12 12 12 5 8 12 4 -3 -4 0 -6 11 7 2 1 4 3 3 3 -0 -0 0 2 2 4 3 5 3 1 1 2 -0 0 0 -2 -2 2 3 0 1 2 3 -0 -1 -1 1 3 4 4 1 1 2 2
8 12 5 7 6 6 -4 -5 2 1 5 -1 2 0 -1 -2 -0 3 0 2 -0 0 3 4 4 3 3 2 1 -1 -1 0 -1 -0 1 2 2 -1 1 1 -0 -2 -0 1 1 1 1 5 5 2 1 1 -0 0
0 12 7 -2 4 1 -0 -0 -0 2 -1 0 -1 -4 -0 2 3 1 0 1 0 2 3 4 3 2 -1 -2 -2 -1 0 1 1 -1 -2 -1 2 2 1 1 1 1 -2 -1 1 1 1 1 1 1 -1 -0 1 1
5 7 1 1 -1 -3 2 0 1 4 1 4 5 4 0 2 1 0 0 -0 3 3 3 1 1 1 1 1 0 1 -2 -1 0 2 -3 -2 -1 1 1 1 -0 -4 -2 -0 2 1 2 2 1 0 0 1 2 3
1 4 -2 -0 1 1 3 1 2 0 2 3 1 1 1 0 1 -0 -1 2 1 1 2 2 3 2 -0 -1 0 1 2 1 0 -0 1 -3 -3 -4 -5 -4 -1 10 4 2 -0 0 2 1 1 2 3 4 4 3
4 -0 1 2 1 2 1 1 2 2 2 1 2 3 3 1 1 -1 2 0 0 1 0 -1 -2 -3 -1 1 0 -3 -2 -2 -6 -6 -5 -2 -1 -2 -5 -5 -4 2 3 4 3 0 0 3 3 1 2 2 3 3
0 1 2 2 3 3 1 3 3 1 2 3 4 1 2 1 -1 2 2 2 1 1 -1 -1 -1 -2 -1 -3 -6 -4 -0 -2 -1 -1 3 4 1 0 2 2 -1 -2 -3 -1 1 0 2 2 -2 1 3 2 2 3
0 2 3 1 3 3 2 2 3 2 2 1 2 3 -0 2 1 1 2 1 -0 -1 -2 -0 1 1 1 -0 -3 -3 -3 -4 -4 -0 1 -1 0 10 6 4 3 2 0 1 7 5 0 -1 -1 -1 3 2 2 3
-1 1 2 3 3 2 1 2 1 1 -0 -0 1 1 0 1 1 3 1 -1 -2 -1 -1 -4 -6 -6 -5 -4 5 5 -6 -3 -4 -7 -6 -3 -3 -1 -2 -1 -3 -1 3 3 -1 2 4 1 2 2 1 2 2 2
3 1 1 1 1 -0 -0 1 1 -0 -0 0 1 1 1 1 1 1 0 -0 -0 -1 -1 1 2 -3 -1 -2 -4 2 10 5 1 -1 -2 -3 -5 -4 -1 -2 -6 0 -1 -2 -1 0 1 2 2 3 3 2 2 2
2 1 1 1 -0 -0 0 -0 -0 0 0 1 1 0 -1 -0 -1 -2 -1 -0 -2 -2 2 2 -0 2 -1 -2 -2 -4 -6 -5 -3 -4 1 1 0 -1 -5 -5 1 1 -1 -0 1 1 1 1 2 2 2 3 3 3
-0 -1 -1 -0 -1 -1 -1 -2 -1 -2 0 0 -1 -0 -1 -1 -1 -0 -0 -2 -6 -4 0 -1 -3 -4 -4 -3 -0 -1 -4 -4 -4 -5 -5 -2 0 1 -1 -1 0 -1 0 2 0 0 1 1 1 2 2 2 2 2
Height
3140 3140 3144 3146 3146 3146 3145 3144 3143 3140 3138 3135 3132 3129 3124 3120 3117 3115 3111 3107 3102 3096 3091 3085 3082 3077 3069 3063 3059 3056 3053 3047 3044 3042 3039 3037 3031 3029 3024 3021 3018 3015 3012 3008 3006 3002 2995 2993 2992 2992 2989 2985 2982 2980
3134 3136 3138 3139 3140 3140 3140 3140 3138 3136 3133 3131 3128 3125 3122 3117 3114 3110 3107 3103 3099 3096 3091 3084 3080 3074 3066 3061 3058 3054 3052 3048 3045 3041 3038 3035 3030 3025 3020 3017 3013 3009 3009 3007 3004 2994 2990 2988 2986 2984 2982 2981 2979 2977
3131 3132 3133 3134 3134 3134 3135 3134 3134 3132 3129 3127 3124 3121 3117 3114 3110 3106 3102 3098 3094 3088 3086 3081 3075 3070 3063 3060 3057 3054 3050 3046 3042 3038 3035 3030 3026 3018 3016 3009 3005 3001 2999 2995 2993 2988 2986 2984 2981 2979 2977 2976 2975 2973
3125 3126 3127 3128 3128 3129 3129 3129 3128 3127 3124 3121 3119 3116 3113 3109 3106 3103 3099 3096 3091 3085 3076 3076 3071 3064 3062 3058 3054 3051 3047 3043 3039 3034 3029 3023 3018 3015 3008 3006 2999 2997 2993 2988 2983 2983 2981 2978 2976 2976 2974 2972 2970 2969
3117 3119 3120 3121 3122 3123 3123 3122 3123 3121 3118 3116 3114 3111 3108 3104 3101 3098 3094 3092 3088 3086 3075 3070 3065 3060 3056 3053 3050 3047 3043 3040 3035 3028 3023 3018 3012 3011 3003 2997 2988 2989 2985 2982 2977 2977 2977 2976 2973 2972 2972 2970 2969 2967
3108 3110 3113 3114 3116 3116 3117 3116 3116 3115 3113 3110 3108 3105 3101 3099 3095 3092 3088 3087 3082 3077 3070 3062 3060 3054 3050 3048 3045 3042 3038 3034 3030 3024 3016 3009 3006 3008 2997 2988 2987 2986 2982 2978 2976 2974 2973 2971 2970 2967 2966 2965 2964 2962
3100 3102 3105 3107 3108 3109 3110 3109 3109 3107 3105 3104 3102 3099 3096 3093 3090 3089 3085 3080 3075 3070 3065 3057 3049 3047 3045 3043 3041 3036 3031 3028 3024 3017 3011 3004 2999 3000 2988 2981 2980 2979 2977 2975 2972 2971 2970 2969 2967 2965 2963 2961 2959 2957
3094 3096 3097 3099 3100 3102 3102 3102 3101 3100 3098 3096 3094 3091 3089 3086 3083 3082 3079 3073 3068 3064 3060 3054 3047 3042 3041 3037 3033 3028 3023 3018 3013 3009 3004 2999 2992 2990 2982 2978 2976 2974 2972 2970 2968 2965 2963 2962 2960 2958 2957 2956 2954 2952
3088 3089 3091 3092 3093 3094 3094 3094 3093 3092 3090 3087 3086 3084 3081 3078 3075 3074 3069 3065 3058 3059 3052 3046 3042 3039 3033 3031 3026 3019 3014 3007 3001 2997 2994 2992 2984 2981 2977 2973 2972 2971 2969 2965 2962 2960 2958 2957 2955 2953 2952 2950 2948 2946
3081 3082 3083 3084 3085 3087 3086 3085 3085 3083 3081 3079 3078 3075 3070 3071 3069 3067 3059 3055 3045 3044 3041 3040 3037 3034 3032 3026 3019 3017 3008 3003 2993 2989 2984 2977 2970 2973 2968 2967 2966 2965 2964 2961 2958 2955 2952 2950 2948 2946 2945 2943 2941 2939
3072 3073 3074 3076 3077 3078 3078 3075 3073 3072 3070 3069 3067 3064 3063 3064 3062 3059 3054 3049 3043 3038 3035 3034 3032 3029 3025 3022 3016 3013 3005 3000 2990 2985 2981 2970 2964 2966 2965 2965 2963 2961 2959 2955 2952 2949 2945 2942 2940 2938 2936 2933 2931 2929
3062 3064 3065 3067 3068 3068 3068 3065 3064 3064 3062 3059 3058 3056 3058 3058 3054 3054 3047 3043 3039 3035 3033 3030 3027 3022 3019 3016 3011 3004 3000 2993 2984 2978 2977 2965 2963 2962 2961 2960 2958 2956 2953 2950 2946 2942 2938 2936 2933 2931 2929 2927 2924 2921
3052 3053 3054 3057 3058 3058 3056 3054 3055 3054 3052 3048 3048 3049 3051 3049 3044 3040 3035 3033 3031 3029 3026 3022 3020 3016 3011 3008 3004 3001 2991 2984 2979 2975 2966 2961 2960 2960 2958 2955 2952 2949 2945 2941 2937 2934 2930 2928 2926 2923 2921 2919 2917 2913
3042 3043 3045 3047 3047 3046 3045 3045 3045 3045 3041 3038 3038 3038 3040 3033 3027 3025 3026 3026 3025 3022 3019 3016 3012 3011 3005 3001 2997 2991 2985 2980 2972 2966 2959 2959 2957 2954 2952 2948 2945 2941 2937 2932 2928 2925 2923 2921 2918 2916 2913 2911 2908 2905
3031 3033 3034 3035 3037 3037 3035 3036 3035 3033 3030 3027 3026 3025 3018 3017 3017 3018 3018 3019 3017 3015 3012 3008 3002 3000 2997 2995 2989 2984 2979 2970 2963 2958 2957 2953 2950 2947 2944 2941 2937 2932 2928 2924 2921 2917 2915 2913 2912 2909 2906 2903 2900 2897
3020 3021 3024 3026 3024 3023 3025 3024 3023 3021 3017 3014 3008 3011 3008 3011 3011 3011 3012 3011 3010 3007 3003 3001 2995 2990 2986 2985 2979 2973 2967 2959 2955 2953 2949 2946 2943 2939 2936 2932 2927 2922 2917 2914 2912 2909 2907 2905 2903 2901 2898 2894 2891 2888
3008 3010 3015 3014 3013 3014 3013 3012 3011 3008 3006 2999 2997 3000 3002 3002 3003 3004 3004 3003 3001 2999 2997 2993 2989 2986 2979 2973 2966 2962 2957 2952 2947 2944 2942 2939 2935 2930 2926 2921 2916 2911 2907 2904 2902 2900 2898 2896 2894 2892 2890 2886 2883 2879
2998 3002 3003 3003 3004 3002 3000 3000 3000 2996 2990 2988 2992 2996 2994 2995 2994 2994 2994 2993 2991 2987 2985 2982 2977 2972 2970 2961 2955 2950 2946 2943 2940 2937 2934 2930 2925 2920 2915 2909 2905 2901 2899 2896 2894 2892 2891 2889 2886 2883 2881 2878 2875 2871
2991 2992 2992 2992 2993 2992 2990 2988 2987 2982 2982 2983 2985 2986 2986 2987 2985 2985 2984 2983 2980 2979 2975 2968 2967 2957 2954 2949 2946 2944 2939 2934 2931 2930 2926 2920 2914 2909 2904 2900 2896 2893 2891 2889 2887 2885 2883 2880 2878 2875 2872 2868 2866 2863
2981 2981 2981 2981 2980 2978 2979 2980 2978 2978 2974 2977 2977 2978 2976 2975 2975 2975 2974 2973 2970 2967 2963 2957 2951 2948 2945 2940 2936 2933 2930 2926 2922 2918 2915 2911 2905 2900 2895 2891 2888 2886 2883 2880 2878 2875 2872 2870 2868 2865 2862 2859 2856 2853
2970 2970 2970 2969 2967 2969 2971 2970 2969 2969 2969 2970 2970 2969 2967 2966 2966 2964 2963 2959 2957 2954 2950 2947 2943 2939 2935 2931 2927 2924 2920 2916 2912 2907 2902 2898 2896 2891 2888 2884 2881 2878 2875 2872 2869 2866 2863 2860 2857 2854 2851 2848 2845 2842
2959 2958 2958 2960 2963 2966 2966 2964 2964 2963 2965 2963 2961 2959 2957 2956 2956 2954 2951 2948 2945 2942 2940 2937 2934 2931 2927 2923 2919 2915 2912 2908 2904 2900 2895 2890 2886 2884 2881 2877 2874 2872 2868 2863 2859 2856 2852 2848 2844 2841 2838 2836 2833 2830
2955 2955 2956 2959 2960 2958 2956 2957 2956 2954 2954 2951 2950 2951 2949 2948 2947 2945 2940 2936 2935 2932 2930 2927 2923 2920 2918 2914 2910 2907 2903 2899 2895 2891 2888 2885 2881 2876 2872 2868 2863 2859 2856 2852 2847 2843 2839 2834 2831 2827 2825 2823 2820 2818
2952 2951 2951 2952 2950 2947 2945 2944 2944 2946 2945 2945 2944 2942 2940 2938 2936 2932 2928 2927 2925 2922 2920 2917 2915 2912 2908 2905 2902 2898 2895 2892 2889 2883 2879 2875 2871 2866 2861 2855 2851 2845 2840 2836 2832 2828 2825 2821 2818 2816 2813 2811 2809 2807
2949 2947 2945 2941 2941 2939 2938 2936 2937 2938 2937 2937 2935 2933 2931 2929 2927 2923 2920 2918 2916 2914 2912 2909 2907 2904 2902 2898 2895 2891 2887 2883 2879 2874 2867 2862 2857 2853 2849 2844 2839 2833 2828 2824 2821 2818 2814 2810 2808 2805 2803 2802 2800 2799
2941 2938 2937 2932 2931 2933 2931 2930 2930 2930 2930 2929 2927 2925 2923 2922 2919 2916 2913 2911 2910 2908 2906 2903 2901 2898 2894 2889 2886 2883 2878 2872 2867 2862 2857 2851 2845 2840 2835 2832 2829 2826 2820 2815 2812 2808 2806 2803 2801 2799 2797 2796 2794 2793
2931 2928 2927 2927 2926 2927 2926 2925 2925 2924 2923 2922 2919 2919 2917 2915 2910 2908 2907 2906 2905 2903 2900 2896 2893 2889 2885 2882 2877 2873 2868 2862 2856 2851 2844 2839 2833 2828 2824 2820 2817 2815 2812 2809 2806 2802 2800 2798 2795 2793 2793 2792 2791 2790
2922 2921 2922 2922 2921 2920 2920 2919 2918 2917 2916 2915 2914 2914 2913 2909 2908 2906 2903 2900 2898 2895 2892 2888 2884 2880 2876 2871 2866 2861 2856 2852 2847 2842 2838 2832 2825 2819 2816 2813 2810 2807 2804 2802 2799 2796 2795 2793 2791 2790 2789 2788 2787 2786
2915 2915 2916 2915 2915 2914 2913 2913 2912 2912 2911 2911 2910 2909 2907 2905 2903 2900 2897 2894 2891 2888 2885 2882 2879 2875 2872 2866 2859 2853 2846 2840 2835 2831 2826 2822 2818 2817 2812 2808 2805 2802 2799 2796 2794 2791 2789 2786 2785 2784 2784 2784 2783 2782
2910 2910 2909 2908 2909 2908 2909 2909 2907 2906 2906 2906 2905 2903 2901 2899 2897 2894 2890 2887 2885 2883 2880 2876 2871 2866 2862 2857 2854 2849 2840 2835 2829 2823 2817 2813 2809 2806 2804 2802 2799 2797 2795 2791 2788 2785 2783 2781 2780 2779 2779 2779 2779 2779
2903 2904 2904 2904 2904 2904 2904 2903 2902 2902 2901 2899 2898 2896 2895 2893 2890 2888 2886 2883 2881 2878 2875 2871 2866 2859 2854 2850 2845 2841 2838 2832 2826 2821 2815 2809 2804 2800 2798 2795 2793 2792 2789 2787 2783 2780 2777 2775 2774 2774 2774 2774 2774 2774
2899 2899 2900 2900 2900 2900 2899 2898 2897 2897 2895 2893 2891 2889 2887 2887 2886 2885 2883 2880 2877 2874 2870 2863 2858 2853 2848 2843 2838 2833 2828 2824 2820 2815 2812 2807 2802 2798 2794 2790 2788 2787 2785 2783 2780 2777 2774 2772 2771 2770 2771 2770 2771 2771
2896 2897 2896 2896 2896 2896 2895 2895 2892 2891 2890 2888 2886 2885 2884 2884 2883 2882 2879 2875 2871 2867 2863 2857 2852 2847 2842 2838 2835 2831 2826 2822 2817 2813 2808 2804 2800 2796 2792 2788 2785 2784 2782 2781 2778 2775 2773 2770 2769 2768 2768 2768 2768 2768